Home   Weather   Baden   Past weeks

Flag for Austria Past Weather in Baden, Lower Austria, Austria — Yesterday and Last 2 Weeks

Now
43 °F

Passing clouds.


Feels Like: 40 °F
Forecast: 37 / 67 °F
Wind: 5 mph from West

Location: Vienna Schwechat-Flughafen Airport

Current Time: Apr 24, 2017 at 9:32:08 am

Latest Report: Apr 24, 2017 at 8:20 am


Visibility: N/A

Pressure: 30.18 "Hg

Humidity: 66%

Dew Point: 32 °F

Location of BadenLocation

Past Weather in Baden — Graph

°F

Baden Temperature Yesterday

Maximum temperature yesterday: 52 °F (at 12:20 pm)
Minimum temperature yesterday: 41 °F (at 4:20 am)
Average temperature yesterday: 46 °F

High & Low Weather Summary for the Past Weeks

 TemperatureHumidityPressure
High70 °F (Apr 10, 2:50 pm)100% (Apr 17, 9:20 pm)30.45 "Hg (Apr 17, 9:20 pm)
Low32 °F (Apr 19, 4:50 pm)38% (Apr 10, 3:20 pm)29.80 "Hg (Apr 13, 4:50 am)
Average48 °F67%30.08 "Hg
* Reported Apr 9 8:20 am — Apr 24 8:20 am, Baden, Weather by CustomWeather, © 2017

Note: Actual official high and low records may vary slightly from our data, if they occured in-between our weather recording intervals... More about our weather records

Advertising

Baden Weather History for the Previous 24 Hours

Scroll right to see more
 ConditionsComfort  
Time TempWeatherWind HumidityBarometerVisibility
8:20 am
Mon, Apr 24
43 °FPassing clouds.5 mph66%30.18 "HgN/A
7:50 am41 °FSunny.6 mph70%30.18 "Hg10 mi
7:20 am41 °FPassing clouds.3 mph66%30.18 "HgN/A
6:50 am39 °FSunny.6 mph65%30.18 "Hg10 mi
6:20 am37 °FSunny.6 mph70%30.18 "Hg10 mi
5:50 am37 °FSunny.7 mph70%30.18 "Hg10 mi
5:20 am36 °FClear.7 mph75%30.18 "Hg10 mi
4:50 am36 °FClear.7 mph75%30.18 "Hg10 mi
4:20 am37 °FClear.9 mph70%30.18 "Hg10 mi
3:50 am37 °FClear.8 mph70%30.18 "Hg10 mi
3:20 am37 °FClear.7 mph70%30.18 "Hg10 mi
2:50 am39 °FClear.7 mph65%30.18 "Hg10 mi
2:20 am37 °FClear.7 mph70%30.18 "Hg10 mi
1:50 am39 °FClear.8 mph65%30.18 "Hg10 mi
1:20 am41 °FClear.8 mph61%30.21 "Hg10 mi
12:50 am43 °FPassing clouds.8 mph57%30.21 "HgN/A
12:20 am43 °FClear.8 mph53%30.21 "Hg10 mi
11:50 pm
Sun, Apr 23
45 °FClear.9 mph49%30.18 "Hg10 mi
11:20 pm46 °FClear.9 mph46%30.18 "Hg10 mi
10:50 pm46 °FClear.10 mph46%30.18 "Hg10 mi
10:20 pm46 °FClear.13 mph46%30.18 "Hg10 mi
9:50 pm46 °FClear.10 mph53%30.18 "Hg10 mi
9:20 pm48 °FClear.12 mph50%30.18 "Hg10 mi
8:50 pm46 °FClear.1 mph66%30.15 "Hg10 mi
8:20 pm45 °FPassing clouds.2 mph71%30.15 "HgN/A
7:50 pm46 °FPartly sunny.2 mph66%30.12 "HgN/A
7:20 pm46 °FBroken clouds.5 mph66%30.12 "HgN/A
6:50 pm46 °FPartly sunny.6 mph62%30.12 "HgN/A
6:20 pm48 °FPartly sunny.8 mph58%30.12 "HgN/A
5:50 pm50 °FPartly sunny.7 mph47%30.09 "HgN/A
5:20 pm50 °FSunny.10 mph43%30.09 "Hg10 mi
4:50 pm50 °FPartly sunny.9 mph50%30.09 "HgN/A
4:20 pm50 °FBroken clouds.13 mph47%30.09 "HgN/A
3:50 pm50 °FScattered clouds.14 mph50%30.09 "HgN/A
3:20 pm48 °FScattered clouds.15 mph58%30.09 "HgN/A
2:50 pm50 °FScattered clouds.16 mph50%30.12 "HgN/A
2:20 pm50 °FPartly sunny.15 mph47%30.09 "HgN/A
1:50 pm50 °FPartly sunny.18 mph47%30.12 "HgN/A
1:20 pm52 °FScattered clouds.20 mph47%30.12 "HgN/A
12:50 pm52 °FPassing clouds.23 mph38%30.12 "HgN/A
12:20 pm52 °FScattered clouds.22 mph44%30.12 "HgN/A
11:50 am50 °FScattered clouds.18 mph50%30.12 "HgN/A
11:20 am48 °FScattered clouds.23 mph46%30.12 "HgN/A
10:50 am48 °FPartly sunny.20 mph54%30.12 "HgN/A
10:20 am48 °FPartly sunny.18 mph58%30.12 "HgN/A
9:50 am46 °FPartly sunny.18 mph57%30.12 "HgN/A
9:20 am45 °FPassing clouds.17 mph71%30.12 "HgN/A
Weather by CustomWeather, © 2017

See weather overviewHow to use our weather pages